Погода в Конине

Польша     52°13′46″N   18°15′07″E
темп.,
°C
ветер,
м/с
пор.,
м/с
влажн.,
%
обл.,
%
осадки,
мм/ч
давл.,
гПа
погр.,
м
24 сентября, пт
пт2423:00+16зюз122374100 1.0 10021679
02:00+13зсз101769100 1.5 10041167
05:00+12з101674100 0.0 10051172
08:00+12з91574100 0.0 10071062
11:00+14зсз91363100 0.0 10091311
14:00+16зсз101453100 0.0 10091524
17:00+16зсз81351100 0.0 10101482
20:00+14зсз5125883 0.0 1012429
25 сентября, сб
сб2523:00+15зюз51265100 0.0 1013550
02:00+15зюз61275100 0.0 1012532
05:00+14зюз614892 0.0 1012436
08:00+16зюз7138786 0.0 1013653
11:00+17з71276100 0.0 1015787
14:00+18з7117283 0.0 10151012
17:00+17зсз61072100 0.0 1016957
20:00+15з36835 0.0 1018126
26 сентября, вс
вс2623:00+14з358391 0.0 101978
02:00+12с129023 0.0 102011
05:00+12в22912 0.0 102014
08:00+13в238716 0.0 1021100
11:00+18вюв33665 0.0 1022587
14:00+20вюв33588 0.0 1021986
17:00+20вюв3461100 0.0 1020882
20:00+16в5107576 0.0 1020237
27 сентября, пн
пн2723:00+15вюв5117671 0.0 1020252
02:00+13вюв4979100 0.0 1020209
05:00+13в4981100 0.0 1020205
08:00+13в497880 0.0 1020240
11:00+18вюв676114 0.0 1020544
14:00+20вюв565455 0.0 1020960
17:00+20вюв55575 0.0 1020875
20:00+15в49675 0.0 1021221
28 сентября, вт
вт2823:00+13вюв49716 0.0 1022197
02:00+12вюв377423 0.0 1023144
05:00+11вюв347792 0.0 102384
08:00+11вюв367562 0.0 1024152
11:00+16вюв4456100 0.0 1024542
14:00+19вюв444881 0.0 1024906
17:00+19вюв44487 0.0 1024749
20:00+13вюв49635 0.0 1024186